Miscellaneous Local Product
Issued by NWS North Platte, NE

Home | Current Version | Previous Version | Text Only | Print | Product List | Glossary On
Versions: 1 2 3 4 5 6 7 8 9 10 11 12 13 14 15 16 17 18 19 20 21 22 23 24 25 26 27 28 29 30 31 32 33 34 35 36 37 38 39 40 41 42 43 44 45 46 47 48 49 50
573
AXUS43 KLBF 270010
MISLBF


WESTERN AND NORTH CENTRAL NEBRASKA HOURLY WEATHER ROUNDUP
NATIONAL WEATHER SERVICE NORTH PLATTE NE
700 PM CDT WED JUL 26 2017

NOTE: "FAIR" INDICATES FEW OR NO CLOUDS BELOW 12,000 FEET WITH NO
SIGNIFICANT WEATHER AND/OR OBSTRUCTIONS TO VISIBILITY.

NOTE: STATIONS NOT REPORTING VARIABLES SUCH AS SKY/WEATHER OR
PRESSURE ARE PROVIDED BY RAWS AND APRS NETWORKS AND ARE NOT UNDER
NATIONAL WEATHER SERVICE QUALITY CONTROL.

...OBSERVATIONS IN AND NEAR THE EASTERN PANHANDLE OF NEBRASKA...

CITY           SKY/WX    TMP DP  RH WIND       PRES   REMARKS
PINE RIDGE     CLOUDY    82  56  40 E10       30.15S
GORDON         FAIR      81  55  41 NE13      30.16S
CHADRON        CLOUDY    83  50  31 E10       30.13F
ALLIANCE       CLOUDY    81  58  45 NE14      30.16F
SIDNEY         MOSUNNY   83  60  45 NE12      30.18S
$$

...OBSERVATIONS IN NORTHERN NEBRASKA AND FAR SOUTHERN SOUTH DAKOTA...

CITY           SKY/WX    TMP DP  RH WIND       PRES   REMARKS
WINNER         FAIR      88  53  30 NE16      30.09R
VALENTINE      CLOUDY    86  55  34 NE15      30.10S
THEDFORD       CLOUDY    78  66  66 E13       30.11S
AINSWORTH      PTSUNNY   80  66  63 E7        30.11R
O`NEILL        CLOUDY    79  68  68 NE7       30.07S
ORD            CLOUDY    81  68  64 NE8       30.04R
BROKEN BOW     PTSUNNY   80  67  64 E9        30.07S
VALENTINE NWR    N/A     79  65  62 E9          N/A
HALSEY           N/A     80  66  61 E6G13       N/A
BUTTE            N/A     81  62  52 NE15G23     N/A
CHAMBERS         N/A     83  69  62 E3          N/A
EWING            N/A     79  71  77 MISG        N/A
$$

...OBSERVATIONS IN SOUTHWEST NEBRASKA AND FAR NORTHEAST COLORADO...

CITY           SKY/WX    TMP DP  RH WIND       PRES   REMARKS
HOLYOKE        FAIR      79  64  61 E13       30.14R
IMPERIAL       PTSUNNY   80  64  58 E15       30.10F
OGALLALA       SUNNY     82  65  54 E7        30.11S
NORTH PLATTE   CLOUDY    82  67  60 E10       30.08F
MCCOOK         CLOUDY    79  68  69 NE14      30.06R
LEXINGTON      CLOUDY    78  70  76 NE5       30.06S
STAPLETON        N/A     79  67  65 E3G12       N/A
GOTHENBURG       N/A     80  63  56 N3          N/A
CALLAWAY         N/A     81  69  67 E7          N/A
$$

...OBSERVATIONS IN CENTRAL LINCOLN COUNTY AREA...

CITY           SKY/WX    TMP DP  RH WIND       PRES   REMARKS
N.P. AIRPORT   CLOUDY    82  67  60 E10       30.08F
N.P. DOWNTOWN    N/A     80  67  65 E7          N/A
N.P. SOUTHEAST   N/A     80  67  64 NE3         N/A
N.P. HILLCREST   N/A     80  67  64 NE12        N/A
$$

...SOME OBSERVATIONS FROM AROUND THE REGION...

CITY           SKY/WX    TMP DP  RH WIND       PRES   REMARKS
DENVER         CLOUDY    77  58  51 N15       30.21F
LIMON          CLOUDY    78  59  51 NE13      30.20S
ASPEN          CLOUDY    77  52  41 NW7       30.34F
LARAMIE        RAIN      61  58  90 SE15      30.35S FOG
CASPER         CLOUDY    79  57  46 E14       30.19F
CHEYENNE       LGT RAIN  69  55  60 NE9       30.30S
SCOTTSBLUFF    CLOUDY    83  59  44 E14       30.17S
GRAND ISLAND   CLOUDY    78  73  84 NE7       30.04R
OMAHA          CLOUDY    76  73  91 CALM      29.98F
SIOUX FALLS    MOSUNNY   80  61  52 NE10      30.05R
PIERRE         MOSUNNY   87  52  29 VRB6      30.06F
RAPID CITY     CLOUDY    84  51  31 SE8       30.13F
BISMARCK       SUNNY     84  48  28 NE8       30.09S
KANSAS CITY    LGT RAIN  78  76  93 SW3       29.98R
HILL CITY      PTSUNNY   85  73  67 NE16G25   30.00R HX  91
WICHITA        CLOUDY    83  76  79 E3        29.89F HX  91
DODGE CITY     SUNNY     96  66  37 N8        29.97R HX  99
OKLAHOMA CITY  CLOUDY    93  69  45 S15       29.94S HX  98
DALLAS         PTSUNNY   96  66  37 S10       29.94F HX  99
AMARILLO       MOSUNNY   93  57  29 S16       30.02R HX  91
$$




USA.gov is the U.S. government's official web portal to all federal, state and local government web resources and services.